Regional Weather Roundup
Issued by NWS Cleveland, OH

Home | Current Version | Previous Version | Graphics & Text | Print | Product List | Glossary On
Versions: 1 2 3 4 5 6 7 8 9 10 11 12 13 14 15 16 17 18 19 20 21 22 23 24 25 26 27 28 29 30 31 32 33 34 35 36 37 38 39 40 41 42 43 44 45 46 47 48 49 50
000
ASUS41 KCLE 261700
RWRCLE
OHIO REGIONAL WEATHER ROUNDUP
NATIONAL WEATHER SERVICE WILMINGTON, OH
100 PM EDT FRI MAY 26 2017

NOTE: "FAIR" INDICATES FEW OR NO CLOUDS BELOW 12,000 FEET WITH NO
SIGNIFICANT WEATHER AND/OR OBSTRUCTIONS TO VISIBILITY.

OHZ001>008-015>018-024>027-034-035-043-044-261800-
   NORTHWEST OHIO

CITY           SKY/WX    TMP DP  RH WIND       PRES   REMARKS
DEFIANCE       PTSUNNY   64  55  72 VRB6      29.89F
FINDLAY        CLOUDY    65  53  65 W12       29.90R
TOLEDO EXPRESS PTSUNNY   66  54  65 VRB3      29.88R
TOLEDO EXEC    PTSUNNY   66  53  63 VRB6      29.89R
LIMA           PTSUNNY   65  57  75 W9        29.91S
$$

OHZ009>014-019>023-028>033-038-089-261800-
   NORTHEAST OHIO

CITY           SKY/WX    TMP DP  RH WIND       PRES   REMARKS
CLE-HOPKINS    CLOUDY    63  52  67 NW12      29.89R
CLE-LAKEFRONT  CLOUDY    61  54  77 W15       29.86R
CUY CO. ARPT   CLOUDY    59  52  77 NW16      29.87R
LORAIN-ELYRIA  CLOUDY    59  49  69 NW9       29.89R
ASHTABULA      CLOUDY    57  54  89 NW12G21   29.85R
AKRON-CANTON   LGT RAIN  58  54  86 NW13      29.88R FOG
WOOSTER        NOT AVBL
MANSFIELD      CLOUDY    60  53  77 W7        29.90R
YOUNGSTOWN     CLOUDY    63  52  67 W12G20    29.84R
$$

OHZ042-051>053-060>062-070>072-077>081-261800-
  SOUTHWEST OHIO

CITY           SKY/WX    TMP DP  RH WIND       PRES   REMARKS
CINC-COVINGTON FAIR      74  56  53 W9        29.93F
CINC-LUNKEN    FAIR      75  59  57 W13       29.93F
HAMILTON       FAIR      74  59  59 VRB7      29.92F
DAYTON         NOT AVBL
WRIGHT-PAT AFB NOT AVBL
DAYTON GENERAL PTSUNNY   72  56  57 SW10      29.92S
WILMINGTON     PTSUNNY   71  58  63 W15G25    29.93S
$$

OHZ036-037-039>041-045>050-054>059-063>069-073>076-082>088-261800-
  CENTRAL AND SOUTHEAST OHIO

CITY           SKY/WX    TMP DP  RH WIND       PRES   REMARKS
COLUMBUS       PTSUNNY   71  56  58 W14       29.89R
OSU AIRPORT    FAIR      70  56  61 W15G24    29.90R
BOLTON FIELD   MOSUNNY   70  55  60 W15G23    29.92R
RICKENBACK AFB NOT AVBL
NEWARK         PTSUNNY   72  56  57 W10       29.89R
MARION         PTSUNNY   65  54  67 NW12      29.92R
LANCASTER      PTSUNNY   73  55  53 W12G21    29.91R
ZANESVILLE     CLOUDY    67  55  65 W8        29.89S
NEW PHILLY     CLOUDY    63  56  78 NW10      29.88S
$$



USA.gov is the U.S. government's official web portal to all federal, state and local government web resources and services.